Kenosha, WI

5:02 AM CDT on September 25, 2017 (GMT -0500)
Kenosha Regional

Weather History for KENW - January, 2013

Change the Weather History Date:

Sunday, January 27, 2013

  Actual Average Record
Temperature  
Mean Temperature 30 °F -  
Max Temperature 35 °F 27 °F 57 °F (2002)
Min Temperature 24 °F 12 °F -11 °F (1955)
Degree Days  
Heating Degree Days 36    
Moisture  
Dew Point 24 °F    
Average Humidity 79    
Maximum Humidity 93    
Minimum Humidity 66    
Precipitation  
Precipitation 0.08 in - - ()
Sea Level Pressure  
Sea Level Pressure 30.13 in    
Wind  
Wind Speed 10 mph (SSE)    
Max Wind Speed 20 mph    
Max Gust Speed 28 mph    
Visibility 4 miles    
Events Fog , Rain , Snow    
Averages and records for this station are not official NWS values.
T = Trace of Precipitation, MM = Missing Value Source: NWS Daily Summary

Daily Weather History Graph

Daily Weather History Graph

Search for Another Location

Airport or City:

Trip Planner

Search our weather history database for the weather conditions in past years. The results will help you decide how hot, cold, wet, or windy it might be!

Date:

Astronomy

Jan. 27, 2013 Rise Set
Actual Time 7:10 AM CST 4:59 PM CST
Civil Twilight 6:40 AM CST 5:29 PM CST
Nautical Twilight 6:06 AM CST 6:03 PM CST
Astronomical Twilight 5:32 AM CST 6:36 PM CST
Moon 5:55 PM CST (1/27) 7:01 AM CST (1/27)
Length of Visible Light 10h 49m
Length of Day
9h 48m
Full, 100% of the Moon is Illuminated
Jan 27
Full
Feb 3
Last Quarter
Feb 10
New
Feb 17
First Quarter
Feb 25
Full

Hourly Weather History & Observations

Time (CST) Temp. Windchill Dew Point Humidity Pressure Visibility Wind Dir Wind Speed Gust Speed Precip Events Conditions
12:53 AM 26.1 °F 19.4 °F 17.1 °F 69% 30.38 in 9.0 mi South 5.8 mph - N/A   Overcast
1:53 AM 25.0 °F 17.1 °F 16.0 °F 69% 30.38 in 10.0 mi South 6.9 mph - N/A   Partly Cloudy
2:53 AM 24.1 °F 16.0 °F 16.0 °F 71% 30.37 in 9.0 mi South 6.9 mph - N/A   Overcast
3:53 AM 24.1 °F 15.2 °F 16.0 °F 71% 30.35 in 9.0 mi SSE 8.1 mph - N/A   Scattered Clouds
4:53 AM 24.1 °F 13.7 °F 16.0 °F 71% 30.33 in 9.0 mi SSE 10.4 mph - N/A   Clear
5:53 AM 26.1 °F 15.6 °F 17.1 °F 69% 30.33 in 8.0 mi SSE 11.5 mph - N/A   Clear
6:53 AM 26.1 °F 16.2 °F 17.1 °F 69% 30.32 in 8.0 mi SSE 10.4 mph - N/A   Clear
7:53 AM 27.0 °F 18.0 °F 18.0 °F 69% 30.33 in 7.0 mi South 9.2 mph - N/A   Overcast
8:53 AM 28.0 °F 19.3 °F 18.0 °F 66% 30.34 in 7.0 mi South 9.2 mph - N/A   Overcast
9:53 AM 28.9 °F 21.9 °F 19.0 °F 67% 30.34 in 7.0 mi South 6.9 mph - N/A   Overcast
10:53 AM 30.0 °F 21.7 °F 19.9 °F 66% 30.31 in 5.0 mi South 9.2 mph - 0.00 in   Overcast
11:53 AM 30.0 °F 20.0 °F 21.0 °F 69% 30.26 in 5.0 mi SSE 12.7 mph - N/A   Overcast
12:53 PM 30.0 °F 20.5 °F 21.0 °F 69% 30.21 in 5.0 mi SSE 11.5 mph - N/A   Haze
1:36 PM 30.2 °F 20.8 °F 21.2 °F 69% 30.17 in 1.8 mi SSE 11.5 mph - 0.00 in Snow Light Snow
1:53 PM 30.0 °F 21.7 °F 23.0 °F 75% 30.20 in 2.0 mi SSE 9.2 mph - 0.00 in Snow Light Snow
1:57 PM 30.2 °F 20.8 °F 23.0 °F 75% 30.16 in 1.8 mi SSE 11.5 mph - 0.00 in Snow Light Snow
2:09 PM 28.4 °F 19.1 °F 24.8 °F 86% 30.16 in 0.5 mi SE 10.4 mph - 0.01 in Snow Snow
2:53 PM 28.9 °F 17.7 °F 25.0 °F 85% 30.15 in 0.5 mi SE 15.0 mph - 0.03 in Fog , Snow Light Snow
3:11 PM 30.2 °F 19.8 °F 26.6 °F 86% 30.11 in 1.8 mi SE 13.8 mph 21.9 mph 0.01 in   Overcast
3:49 PM 30.2 °F 18.5 °F 26.6 °F 86% 30.11 in 2.5 mi SSE 17.3 mph - 0.01 in Rain Light Freezing Rain
3:53 PM 30.9 °F 18.7 °F 27.0 °F 85% 30.13 in 2.5 mi SSE 19.6 mph 24.2 mph 0.01 in Rain Light Freezing Rain
4:25 PM 32.0 °F 20.1 °F 26.6 °F 80% 30.07 in 3.0 mi SE 19.6 mph 27.6 mph 0.01 in Rain Light Rain
4:53 PM 30.9 °F 20.2 °F 26.1 °F 82% 30.07 in 4.0 mi SSE 15.0 mph 26.5 mph 0.02 in Rain Light Freezing Rain
5:12 PM 30.2 °F 18.5 °F 26.6 °F 86% 30.03 in 5.0 mi SE 17.3 mph 27.6 mph 0.00 in Rain Light Freezing Rain
5:53 PM 30.9 °F 18.7 °F 27.0 °F 85% 30.04 in 5.0 mi SSE 19.6 mph 26.5 mph 0.00 in Rain Light Freezing Rain
6:37 PM 30.2 °F 18.5 °F 26.6 °F 86% 29.99 in 4.0 mi SSE 17.3 mph 26.5 mph 0.00 in Rain Light Freezing Rain
6:53 PM 32.0 °F 21.2 °F 28.0 °F 85% 30.00 in 3.0 mi SSE 16.1 mph - 0.00 in Rain Light Freezing Rain
7:53 PM 32.0 °F 23.6 °F 28.0 °F 85% 29.99 in 3.0 mi SSE 10.4 mph - 0.00 in Rain Light Freezing Rain
8:04 PM 32.0 °F 24.2 °F 28.4 °F 87% 29.95 in 3.0 mi South 9.2 mph - 0.00 in   Overcast
8:29 PM 33.8 °F 25.8 °F 30.2 °F 87% 29.94 in 2.5 mi South 10.4 mph - 0.00 in   Overcast
8:53 PM 33.1 °F 24.9 °F 30.0 °F 89% 29.96 in 2.0 mi South 10.4 mph - 0.00 in   Overcast
9:01 PM 33.8 °F 25.8 °F 30.2 °F 87% 29.93 in 1.8 mi South 10.4 mph - N/A   Overcast
9:53 PM 34.0 °F 26.0 °F 30.9 °F 89% 29.95 in 1.8 mi South 10.4 mph - 0.01 in   Overcast
10:53 PM 34.0 °F 26.0 °F 32.0 °F 92% 29.94 in 1.2 mi South 10.4 mph - 0.01 in   Overcast
11:30 PM 35.6 °F 27.5 °F 33.8 °F 93% 29.89 in 2.0 mi South 11.5 mph - 0.00 in   Overcast
11:39 PM 35.6 °F 28.0 °F 33.8 °F 93% 29.89 in 1.8 mi South 10.4 mph - 0.00 in   Overcast
11:53 PM 35.1 °F 27.4 °F 33.1 °F 92% 29.91 in 2.0 mi South 10.4 mph - 0.00 in   Overcast